User: anonymous   Login
Location: Newark
(48.5667°N, 7.8167°E)
Time: 21:19:29
(UTC+00:00)
Language:

UKube-1 - Orbit

View from above orbital plane
View from above orbital plane
View from above satellite
View from above satellite

Ground track
Ground track

The orbit data is extracted from the following two-line orbital elements,

1 40074U 14037F   20185.47844533  .00000184  00000-0  29157-4 0  9995
2 40074  98.4561  14.7713 0005609  72.4226 287.7588 14.84279537324134
Epoch (UTC): 03 July 2020 11:28:57
Eccentricity: 0.0005609
inclination: 98.4561°
perigee height: 612 km
apogee height: 620 km
right ascension of ascending node: 14.7713°
argument of perigee: 72.4226°
revolutions per day: 14.84279537
mean anomaly at epoch: 287.7588°
orbit number at epoch: 32413

The dashed part of the orbit path shows where the satellite is in the earth's shadow,  

DLR